Vertical_Velocity
-1 2 4 -0 -2 -2 -1 -1 6 11 3 0 0 1 0 -2 -2 -2 -1 2 -0 -2 0 1 1 1 1 0 0 1 1 1 1 1 1 1 0 -1 -2 -3 -4 -4 -3 -2 -2 -2 -2 -2 -1 -0 -0 -1 -1 -1 -1 -1 -1 -1 -2 -3 -4 -4 -2 -1 0 0 0 -1 -1 -1 -1 -0 -0 -0 -0 -0 -1 -2 -3 -2 -1 -1 -1 -1 -1 -1 -1 -0 -0 -1 -1 -0 -0 -0 -1 -1 -1 -1 -1 0 0 -0 -0
-3 -2 -1 -1 -1 -2 -1 -1 9 17 12 3 0 1 1 0 -1 -2 -3 -1 -1 -2 0 1 1 1 1 1 0 1 2 2 1 1 0 0 0 -0 -1 -3 -3 -3 -3 -2 -2 -2 -2 -3 -2 -2 -1 -1 -1 -0 -0 0 0 0 -1 -3 -4 -4 -3 -2 -1 -1 -1 -2 -2 -2 -1 -0 0 -0 0 0 -1 -1 -2 -2 -1 -1 -1 -2 -1 -1 -0 -0 -0 -0 -1 -0 0 0 -0 -1 -1 -1 -1 -0 0 0 0
-2 -3 -1 -1 -1 -1 -2 -2 7 15 17 5 1 1 1 0 -0 -1 -3 -1 -1 -1 -0 1 1 1 2 1 1 1 2 2 2 1 0 0 0 0 -1 -2 -3 -3 -4 -3 -2 -2 -2 -3 -3 -2 -1 -0 -0 -0 0 0 1 1 0 -2 -3 -3 -3 -2 -2 -2 -2 -2 -2 -2 -2 -1 -0 -1 -0 0 -0 -1 -2 -2 -1 -1 -1 -3 -2 -2 -1 -1 -1 -1 -1 -0 -0 0 0 -1 -1 -1 -0 -1 -2 -1 0
-1 -4 -1 -1 -0 -1 -3 -2 3 7 8 3 1 1 0 -0 -1 -1 -1 -1 -0 -0 -1 1 1 1 2 2 1 0 1 2 2 2 1 0 0 0 -0 -1 -3 -3 -4 -3 -3 -2 -1 -2 -2 -2 -1 -1 -0 -0 0 1 1 1 0 -1 -2 -3 -3 -2 -2 -2 -2 -2 -1 -1 -1 -1 -1 -2 -1 -0 -0 -1 -2 -1 -1 -1 -1 -1 -2 -2 -2 -1 -1 -1 -1 -1 -0 0 0 -0 -1 -1 0 -0 -1 -1 -2
-1 -4 -3 -1 -1 -1 -2 -2 0 3 4 1 0 0 -1 -1 -1 -1 -1 -1 -1 -1 -1 1 2 2 1 2 2 1 0 1 1 2 2 1 1 0 0 -1 -2 -3 -3 -3 -3 -2 -1 -1 -1 -1 -1 -1 -1 -0 -0 0 0 0 -1 -2 -2 -2 -2 -2 -1 -2 -2 -2 -1 -0 0 -1 -1 -2 -3 -0 -0 -1 -1 -1 -1 -1 -1 1 -0 -2 -1 -1 -2 -2 -2 -1 -1 -1 0 0 -0 -0 -1 -0 0 -0 -1
-3 -5 -5 -2 -1 -1 -1 -2 0 6 14 4 -0 -1 -1 -1 -1 -1 -1 -1 -1 -1 -1 0 1 2 2 2 3 2 0 0 1 1 2 2 1 1 0 -0 -1 -2 -2 -3 -3 -2 -1 -1 -1 -1 -1 -1 -1 -1 -1 -0 -0 -1 -2 -2 -2 -1 -0 -0 -1 -1 -2 -2 -1 -1 0 0 -0 -1 -2 -0 -0 -0 -1 -0 -1 -1 -1 -0 -0 -0 -1 -1 -2 -2 -1 -1 -1 -1 -1 -0 -0 -0 -0 -1 -0 -0 -0
-3 -4 -4 -2 -1 -1 -0 -1 -1 3 17 9 1 -3 -1 -0 -1 -2 -2 -1 -0 -1 -1 -1 0 1 2 2 3 3 1 0 0 0 1 2 2 1 0 -0 -0 -1 -1 -2 -3 -3 -2 -1 -1 -1 -1 -1 -1 -1 -1 -1 -1 -1 -2 -2 -1 -1 0 -0 -0 -0 -1 -2 -2 -2 -1 5 5 2 -2 -1 -0 -0 -1 1 -0 -2 -1 -1 -1 -0 -1 -2 -2 -1 -1 -2 -2 -2 -1 -1 -1 -0 -0 -1 -1 -1 0
-1 -3 -3 -2 -1 -1 -0 -1 -1 -1 3 4 1 -1 -1 -2 -2 -1 -2 -1 -1 -1 -1 -1 -1 0 1 2 2 3 2 1 0 0 1 1 2 2 1 0 0 -0 -1 -2 -3 -3 -2 -1 -1 -1 -1 -1 -1 -2 -2 -2 -2 -2 -1 -1 -0 0 -0 -0 -0 -1 -2 -2 -2 -3 -4 9 11 6 -2 -1 -0 0 -0 -1 -1 -1 -1 -1 -1 -1 -1 -2 -2 -2 -2 -2 -2 -1 -1 -1 -1 -1 -1 -1 -1 -1 -1
-0 -2 -3 -1 -0 -0 -0 -1 -1 -1 -1 0 0 1 2 1 -0 -1 -1 -1 -1 -1 -1 -1 -1 -1 0 1 1 2 2 2 1 1 0 1 1 1 1 1 0 -0 -1 -1 -2 -3 -2 -1 -1 -1 -1 -1 -1 -1 -2 -2 -2 -2 -1 -1 -0 0 -1 -0 -0 -1 -2 -2 -2 -4 -6 10 13 7 -2 -1 -0 0 -0 -0 0 -0 -2 -1 -1 -1 -2 -1 -1 -1 -1 -1 -1 -1 -1 -1 -1 -0 -1 -1 -1 -1 -1
0 -2 -3 -1 -0 0 0 -0 -1 -1 -1 -1 -0 0 1 5 4 1 -1 -2 -1 -1 -1 -1 -1 -1 -0 0 1 1 2 2 2 1 1 1 1 1 1 1 1 0 -0 -1 -2 -3 -2 -1 -1 -0 -1 -0 -1 -1 -1 -2 -2 -2 -2 -1 -1 -0 -0 0 0 -0 -0 -1 -2 -3 -6 2 7 7 -2 -1 -0 -0 -1 -1 -0 -0 -2 -1 -1 -1 -1 -1 -1 -1 -1 -1 -1 -1 -1 -1 -0 -0 -0 -0 -0 -1 -1
0 -2 -3 -2 -0 1 1 0 -0 -1 -1 -1 -0 0 -0 3 3 2 -0 0 -0 -1 -0 -1 -1 -1 -1 -0 0 1 1 1 2 2 1 1 1 1 1 2 1 1 -0 -1 -2 -2 -2 -1 -0 -0 -0 -0 -0 -1 -1 -1 -2 -2 -2 -2 -1 -0 0 0 -0 0 1 -0 -1 -2 -3 -3 -1 -0 -2 -2 -1 -0 -0 -1 -1 -1 -2 -1 -1 -0 -1 -1 -1 -1 -1 -1 -1 -1 -1 -1 -0 -0 -0 -0 -0 -0 -0
-0 -1 -2 -2 -1 1 1 0 0 -0 -1 -1 -1 -0 0 1 1 0 -0 0 -1 -2 -0 -1 -1 -1 -0 -0 0 1 1 2 1 1 2 1 1 1 1 2 2 1 0 -1 -1 -1 -1 -1 -1 -0 -0 -0 -0 -0 -0 -1 -1 -1 -1 -1 -1 -0 0 -0 -1 -1 0 0 -0 -1 -2 -2 -2 -1 -2 -1 -1 -0 0 0 -0 -1 -2 -1 -1 -0 -1 -1 -1 -1 -1 -1 -1 -1 -1 -1 -1 -0 -0 -0 -0 -0 -0
0 0 1 0 0 1 1 1 1 1 0 -1 -1 -1 -0 0 0 -0 -1 -2 -3 -2 -1 -1 -1 -0 -0 -0 0 1 1 2 2 2 2 1 1 1 1 2 2 2 1 -0 -1 -1 -1 -1 -1 -1 -0 -0 -0 -0 -0 -0 -1 -1 -1 -1 -1 -0 0 -0 -1 -1 -1 -0 -1 -2 -2 -2 -2 -1 -1 -1 -1 0 1 0 -1 -1 -2 -1 -1 -1 -1 -1 -1 -1 -1 -1 -1 -1 -1 -1 -1 -0 -0 -0 -0 -0 -1
1 3 6 2 1 2 1 1 2 2 1 0 -1 -1 -1 -0 0 0 -1 -2 -2 -2 -1 -1 -1 -1 -0 -0 0 0 1 2 2 2 2 2 1 1 1 1 2 2 1 0 -0 -1 -1 -1 -0 -0 -0 -0 -0 -0 -0 -0 -0 -0 -0 -0 -0 0 0 -0 -0 -1 -1 -1 -1 -2 -2 -1 -2 -2 -1 -1 -0 -0 -0 2 2 0 -3 -1 -1 -1 -1 -1 -1 -1 -1 -1 -1 -1 -1 -1 -1 -0 -0 -0 -1 -1 -1
4 8 7 2 3 4 1 2 3 3 2 0 -0 -1 -1 -0 0 1 0 -1 -1 -1 -1 -1 -1 -1 -1 -1 -0 0 0 1 2 2 3 2 1 1 1 1 2 2 1 1 -0 -1 -0 -0 -0 -0 -0 -0 -0 -0 -0 -0 0 0 0 0 0 1 1 0 -0 -0 -0 1 0 -1 -3 -2 -1 -1 -1 -1 -1 -0 -0 1 4 4 -4 -1 -0 -0 -0 -0 -0 -1 -1 -1 -1 -1 -1 -1 -1 -1 -0 -1 -1 -1 -1
6 9 3 2 2 2 1 2 3 4 4 2 0 -0 -1 -0 0 1 1 1 0 -0 -1 -1 -1 -1 -1 -1 -1 -0 0 0 1 2 3 3 2 1 1 1 1 1 1 1 0 -0 -0 -0 -0 -0 -1 -1 -1 -0 -0 -0 0 0 1 0 0 1 1 1 0 -0 -0 2 1 -2 -4 -2 -1 -1 -1 -1 -1 -1 -0 -0 3 4 -3 -1 -0 -0 -0 -0 -0 -0 -1 -1 -1 -2 -2 -2 -2 -1 -1 -1 -1 -1 -1
3 5 2 1 1 2 4 5 4 3 3 3 2 0 0 -0 0 0 1 1 1 1 0 -0 -0 -0 -0 -1 -1 -1 -0 -0 0 1 3 4 3 1 0 0 1 1 1 1 1 -0 -0 -0 -0 -0 -0 -1 -1 -0 -0 0 0 0 1 0 1 1 1 1 1 1 0 1 0 -1 -0 0 -0 -1 -2 -2 -2 -1 -1 -0 1 0 -2 -1 0 0 0 0 0 -0 -0 -0 -1 -2 -2 -2 -2 -1 -1 -1 -1 -1 -0
1 1 1 0 1 3 5 6 5 2 0 2 3 3 1 0 -0 0 0 1 1 1 1 0 0 1 1 -0 -0 -1 -1 -0 -0 0 2 4 3 1 -0 -0 0 0 1 2 1 0 -0 -0 0 0 -0 -0 -0 -0 -0 0 0 0 0 0 1 1 1 1 1 0 0 0 -0 0 4 4 1 -1 -1 -1 -1 -1 -1 -0 -0 -1 -2 -1 0 0 0 0 0 -0 0 -0 -1 -2 -2 -1 -1 -1 -1 -1 -1 -0 -0
1 0 -0 -1 0 1 1 2 3 3 2 1 3 5 4 1 -0 -0 -0 0 1 1 1 1 1 1 1 1 0 -1 -1 -1 -0 0 2 4 3 2 0 -0 -0 0 1 2 1 1 0 0 0 0 0 0 0 0 0 0 0 0 0 0 1 1 1 1 0 -0 -0 0 0 1 2 5 2 -1 -0 0 -1 -1 -1 -0 -0 -1 -1 -0 0 0 1 1 0 -0 -0 -0 -0 -1 -1 -1 -1 -1 -1 -1 -1 -0 -0
1 1 -0 -1 -1 -0 -0 0 1 3 7 6 4 4 4 1 -0 -1 -0 0 0 1 0 0 0 1 1 0 0 -0 -1 -1 -0 0 2 4 4 3 1 1 1 1 1 2 2 1 1 0 0 0 0 0 0 0 0 1 1 1 0 0 0 1 1 2 1 -0 -1 -1 -0 -0 -1 3 1 -1 -0 1 0 -1 -2 -1 -1 -0 -0 0 0 0 0 1 0 -0 -1 -0 -0 -1 -1 -1 -1 -1 -1 -1 -0 -0 -0
0 0 -0 -0 -1 -1 -1 -0 -0 1 7 10 9 5 0 0 -1 -1 -0 -0 0 0 -0 -1 -0 0 0 -0 -0 -0 -0 -0 -0 0 2 3 3 3 2 2 2 2 1 2 2 2 1 1 1 0 0 0 0 0 1 1 1 1 1 0 0 0 1 1 1 1 -0 -1 -1 -2 -2 -1 -1 -1 -1 0 1 0 -2 -2 -1 -1 -0 -0 -0 -0 0 0 0 0 -1 -0 -0 -0 -0 -1 -1 -1 -1 -1 -0 -0 -0
-1 -0 -0 -0 -0 -0 -1 -1 -1 -0 2 11 12 9 2 -0 -1 -2 -1 -1 -1 -0 -0 -1 -1 0 1 0 -0 -0 0 0 0 0 1 2 3 3 2 2 2 2 2 2 2 1 1 1 1 1 1 0 0 0 1 1 1 1 1 1 0 0 0 1 2 2 2 -0 -2 -2 -1 -1 -1 -2 -3 -1 0 1 -1 1 0 -1 -0 -0 -0 -0 -0 0 0 -0 -0 -0 -0 -0 -0 -1 -1 -1 -1 -1 -0 -0 -0
-1 -1 -1 -0 -0 -0 -0 -0 -1 -1 0 8 12 11 3 -0 -2 -2 -1 -2 -2 -1 -1 -1 -1 -1 0 0 0 0 0 0 1 1 2 2 2 2 2 2 2 3 3 2 2 1 1 1 1 1 1 0 0 0 1 1 1 1 1 1 0 0 -0 1 2 2 2 1 -0 -0 2 4 2 -1 -3 -0 0 -0 -0 2 2 0 -0 0 0 -0 -0 0 0 -0 -0 -0 -0 -0 -0 -0 -1 -1 -1 -1 -1 -0 -0
-1 -1 -1 -1 -0 0 0 0 -1 -2 -2 3 8 12 8 4 3 3 2 -1 -2 -2 -1 -1 -2 -2 -1 0 0 0 1 1 1 1 2 2 2 2 2 2 2 3 3 3 2 2 1 1 1 1 1 1 0 0 0 1 1 1 1 1 1 0 -0 -0 1 2 1 1 1 1 2 5 4 2 -2 1 1 -1 -2 0 0 -0 -1 -0 0 0 -0 0 -0 -0 -1 -0 -0 0 0 -0 -0 -1 -1 -1 -1 -1 -1
0 -0 -1 -0 -0 0 0 -0 -1 -1 -1 -1 2 7 12 12 12 11 11 8 5 1 -1 -2 -2 -2 -1 -1 0 1 1 1 1 2 2 2 2 2 2 2 2 2 3 3 3 2 1 1 0 1 1 1 1 0 0 0 0 1 1 1 1 0 -1 -1 0 2 1 1 1 1 1 1 1 0 0 4 4 0 -3 -2 -1 -0 -0 -0 0 0 0 -0 -0 -0 -0 -0 -0 0 0 0 -0 -0 -1 -1 -1 -1 -1
1 0 -1 -0 0 0 1 -0 -0 -0 0 -1 -1 0 5 11 13 14 15 16 14 9 2 -2 -3 -3 -2 -2 -1 0 1 1 1 2 2 2 2 1 1 1 1 2 2 3 3 2 1 1 0 0 1 1 1 0 0 0 0 0 1 1 0 0 -0 -1 -0 0 0 1 1 1 1 -0 -2 -2 0 6 6 3 -3 -3 -2 -0 0 0 0 0 0 0 -0 -1 -1 -0 -0 0 0 0 0 -0 -0 -0 -0 -1 -1
0 0 -0 0 0 0 0 -0 -0 -0 0 0 -0 -1 -1 2 4 6 6 9 13 14 9 1 -2 -3 -3 -2 -2 -1 -0 1 1 2 2 2 1 1 0 0 0 1 1 2 2 2 2 1 1 0 1 1 1 0 0 0 0 0 1 0 0 0 0 0 -0 -0 -0 0 1 1 1 0 -1 -2 -3 5 6 4 -2 -3 -2 -1 -0 0 0 0 1 0 0 -0 -1 -1 -0 0 0 0 0 0 0 -0 -0 -0 -0
0 -1 0 0 0 0 0 -0 -0 -1 -1 0 1 0 -1 -1 -1 -1 -1 -0 2 5 6 1 -2 -3 -3 -3 -2 -2 -1 -1 -0 1 2 1 1 -0 -1 -1 -1 -0 0 1 2 2 2 2 1 1 1 1 1 0 0 0 0 0 1 0 0 0 0 0 -0 0 0 0 0 0 0 0 -1 -2 -4 -0 2 3 0 -2 -3 -2 -1 -1 -0 0 0 1 0 0 -0 -1 -0 0 0 0 0 -0 0 0 -0 -0 -0
3 -0 0 1 0 0 1 1 1 1 -0 -0 -0 -0 -0 -0 -1 -2 -2 -2 -2 -2 -1 -1 -2 -2 -2 -2 -2 -2 -2 -3 -2 -1 1 1 1 -0 -1 -1 -1 -1 -1 0 1 1 2 2 1 1 1 0 0 0 0 -0 0 0 0 1 1 1 0 0 0 0 0 0 0 0 1 1 -0 -1 -1 -0 -0 0 1 -1 -3 -3 -1 -1 -1 -0 0 0 0 0 0 -0 -0 0 0 0 -0 -0 0 0 0 -0 -0
6 3 0 0 0 0 1 2 2 1 0 -1 -1 -2 -1 -1 -2 -2 -2 -1 -2 -2 -2 -1 -0 -0 -1 -1 -2 -2 -2 -3 -3 -2 0 1 1 0 -0 -1 -1 -1 -1 -0 0 1 2 2 1 1 0 0 0 0 -0 -0 -0 -0 0 0 1 1 1 0 -0 -0 0 1 1 1 1 1 0 -0 0 2 1 0 1 -0 -3 -4 -3 -1 -1 -0 -0 0 0 0 0 0 0 0 0 0 -0 -0 -0 0 0 0 0
5 4 0 -0 0 1 1 1 1 0 0 -1 -2 -3 -2 -2 -3 -3 -3 -2 -1 -1 -2 -1 -1 -1 -1 -1 -2 -2 -1 -2 -4 -4 -0 1 1 1 0 -0 -0 -0 -0 -0 0 1 1 2 1 1 0 0 0 0 -0 -1 -1 -1 -1 -0 0 1 1 0 -0 -0 0 1 1 1 1 0 0 0 2 3 4 6 6 3 -0 -4 -5 -3 -1 -0 -0 -0 0 0 0 0 -0 0 0 0 0 0 -0 0 0 0 0
3 4 5 2 1 1 0 1 1 1 1 -0 -2 -2 -2 -2 -2 -2 -2 -0 1 1 -1 -1 -1 -1 -1 -3 -5 -6 -2 -1 -3 -4 -2 0 1 1 1 1 1 0 1 1 1 1 1 2 2 1 1 0 0 -0 -0 -0 -1 -1 -1 -1 -1 -0 0 -0 -0 -1 -0 1 1 1 1 1 0 0 0 -1 4 10 13 7 2 -1 -1 -2 -2 -1 -0 -0 0 0 0 -0 -0 0 0 0 0 0 -0 0 0 0 0
0 2 6 8 6 3 1 1 1 1 1 -0 -2 -3 -2 -1 1 2 3 2 1 1 0 -0 1 1 1 -3 -7 -7 -3 -2 -2 -2 -2 -1 -0 0 2 2 2 1 2 1 1 1 2 2 1 1 1 1 0 -0 -0 -0 -1 -1 -1 -1 -1 -1 -0 -1 -1 -1 -1 0 1 1 1 1 1 0 -1 -2 2 9 15 9 3 -0 2 1 -1 -2 -1 -0 0 0 -0 -0 -0 0 1 0 0 0 0 0 0 0 0
-2 -3 1 10 12 9 3 1 0 0 1 -0 -2 -3 -2 2 4 6 5 2 1 1 1 -0 1 2 3 -3 -6 -6 -5 -4 -3 -2 -1 -2 -1 1 3 3 3 3 3 1 1 1 2 1 1 1 2 1 0 0 0 -0 -1 -1 -1 -1 -1 -1 -1 -1 -1 -1 -1 -0 1 1 1 0 -0 1 3 -0 4 11 17 10 3 0 3 3 0 -2 -1 -1 -0 0 0 -0 -0 0 0 1 1 0 0 0 0 0 0
-8 -14 -8 3 13 18 14 7 3 1 0 -0 -2 -2 -1 3 4 4 5 3 2 2 2 0 0 1 3 -0 -3 -6 -6 -6 -5 -4 -3 -3 -1 1 4 3 3 3 3 1 1 1 1 1 1 1 1 1 0 0 -0 -0 -0 -1 -1 -1 -1 -1 -1 -1 -1 -1 -1 -1 0 1 1 0 -0 0 2 -2 1 9 19 13 7 3 4 4 0 -2 -2 -0 -0 -0 0 0 0 -0 -0 1 1 0 0 0 0 0 0
-9 -16 -13 -2 9 16 18 13 9 5 2 1 -0 -1 -0 1 1 2 6 11 12 9 5 3 1 1 1 2 1 0 -1 -2 -3 -4 -4 -3 -1 1 4 2 1 1 0 -0 1 1 2 1 1 1 1 1 0 0 -0 -0 -0 -0 -1 -0 -0 -0 -0 -1 -1 -2 -2 -1 -0 1 1 0 0 0 0 -2 -1 3 11 9 7 5 5 3 -0 -2 -2 -0 0 0 -0 -0 -0 -0 -0 1 1 1 0 0 0 0 0
-2 -8 -14 -5 4 11 12 11 9 7 4 1 0 0 1 1 -0 -1 -1 13 21 22 16 10 6 3 0 1 4 6 7 5 1 -3 -7 -4 -1 2 4 -1 -3 -4 -4 -3 -2 0 1 0 1 2 1 1 0 0 -0 -0 -0 -0 -1 -0 0 0 0 -1 -2 -2 -2 -1 -0 0 1 0 -0 -0 0 -0 -1 -1 0 1 1 1 1 -0 -1 -2 -2 -1 0 0 -0 -0 0 0 1 1 1 1 0 0 0 -0 0
1 -0 -3 -4 -0 4 4 4 5 5 4 2 1 1 2 1 1 -1 -4 -4 5 17 21 16 13 9 4 1 3 7 9 8 4 -2 -7 -5 -1 3 4 1 -4 -8 -9 -7 -5 -3 -2 -1 1 2 2 2 1 0 -0 -0 -1 -1 -0 -0 0 0 0 -1 -1 -2 -2 -2 -1 0 0 0 -0 -0 -0 0 0 -0 -1 -1 -2 -2 -2 -2 -2 -3 -2 -1 0 1 -0 -0 -0 0 1 1 0 0 0 0 0 0 0
0 0 1 2 1 1 0 2 2 2 2 2 1 1 2 2 3 2 -1 -11 -8 3 12 12 13 14 13 8 5 4 6 6 4 0 -3 -2 -0 2 3 3 -0 -5 -10 -9 -8 -7 -7 -3 0 2 2 2 2 1 1 -0 -1 -1 -0 -0 -0 -0 0 -0 -1 -2 -2 -2 -1 -0 0 0 -0 -0 -1 -0 -0 0 0 -0 -1 -2 -2 -1 -2 -3 -3 -1 0 1 0 -0 -0 0 0 0 0 0 0 0 0 0 0
0 -0 -0 1 1 1 2 2 2 2 1 2 3 3 3 3 4 4 2 -11 -12 -4 9 10 9 9 13 17 16 11 6 5 4 3 2 2 2 2 2 3 2 -1 -4 -5 -8 -10 -11 -5 -1 1 3 3 3 3 2 -0 -1 -1 -1 -1 -1 -1 -0 -1 -1 -1 -2 -2 -2 -1 0 1 0 0 -0 -0 -0 -0 -0 -0 -0 -0 1 1 -1 -2 -1 -0 -1 -1 -0 -0 0 0 0 -0 -0 0 0 0 0 0 0
0 0 -0 -0 0 1 2 2 3 2 1 2 3 5 5 3 4 5 6 -5 -12 -10 4 8 7 4 3 11 17 21 18 13 9 6 5 5 4 4 3 1 0 -0 -0 -1 -5 -9 -10 -6 -3 0 3 4 4 3 1 0 -0 -0 -1 -1 -1 -1 -1 -1 -0 -1 -2 -2 -2 -1 -0 0 1 1 0 0 -0 -0 -0 -1 -0 2 6 3 0 -1 1 2 -0 -3 -2 -1 0 1 1 0 0 -0 -0 -0 0 0 0
0 0 0 0 1 1 1 2 2 2 1 0 2 3 4 3 3 5 7 1 -9 -14 -6 0 3 3 -0 -2 4 13 21 23 18 12 8 8 7 7 6 2 -1 -2 0 1 -1 -4 -6 -6 -4 -1 2 4 4 3 1 1 1 0 -0 -1 -1 -1 -1 -0 -0 -0 -1 -2 -2 -2 -1 -0 0 1 1 1 0 0 -0 -1 -1 1 6 3 -0 -1 3 6 4 -1 -4 -2 -1 -0 -1 0 0 0 -1 -0 -0 -0 0
0 0 0 0 1 1 1 1 2 2 1 0 -0 0 1 0 1 4 8 4 -8 -17 -16 -7 -1 0 -4 -10 -12 -9 0 11 16 17 13 10 9 8 8 5 2 0 1 2 1 -0 -2 -4 -4 -2 2 3 2 1 0 2 2 1 0 -0 -1 -1 -1 -0 -0 -0 -1 -1 -2 -2 -2 -1 -0 0 1 1 1 1 0 -1 -1 -1 2 0 -2 -3 2 8 7 2 -2 -2 -1 -1 -2 -1 -1 -1 -1 -1 -1 -1 -0
0 0 0 0 1 1 1 1 1 1 1 0 0 -0 -1 -2 -1 2 7 4 -8 -19 -21 -11 -4 -0 -4 -8 -11 -14 -17 -10 -0 9 12 10 8 6 5 6 6 5 4 3 2 1 1 -2 -2 -1 1 1 -0 -1 1 2 2 2 1 1 0 -0 -1 -1 -1 -0 -0 -0 -1 -1 -2 -2 -1 -1 0 1 1 1 1 -0 -1 -1 -1 -1 -2 -3 -1 2 3 2 -1 -1 -1 -0 0 0 -1 -2 -2 -3 -2 -0 1
0 1 1 1 1 1 1 0 0 -0 -0 -0 -0 -0 -1 -1 -0 2 4 2 -5 -12 -16 -11 -6 -2 -0 -1 -2 -5 -9 -9 -5 1 7 8 7 4 3 3 5 7 7 4 3 2 2 0 -0 -0 0 -1 -2 -2 -2 -2 -1 1 3 2 1 -0 -1 -1 -0 0 -0 0 -0 -1 -2 -2 -2 -1 -1 0 1 1 1 0 -0 -1 -1 -1 -2 -2 -2 -2 -1 -1 -0 -0 -1 -1 1 1 0 -1 -2 -4 -0 5 7
-0 -0 0 1 1 1 0 -0 -1 -1 -2 -1 -1 -0 0 1 1 2 2 1 -1 -1 -2 -3 -3 -2 0 1 1 0 -1 -2 -1 1 4 6 6 5 3 1 2 4 6 5 4 4 3 2 2 1 -0 -0 -1 -3 -7 -9 -6 -1 2 0 -0 -0 -1 -1 -1 0 -0 0 0 -0 -1 -2 -2 -2 -1 -0 0 0 0 1 1 0 -0 -0 -1 -1 -2 -2 -2 -1 -0 0 -1 -1 0 -0 -1 -1 -2 -4 0 7 14
-1 -1 -1 -1 -0 -0 0 -0 -1 -1 -2 -1 -1 -0 1 2 2 2 2 1 0 2 4 3 1 0 1 3 3 2 1 1 1 1 2 5 6 6 5 3 1 0 2 4 5 5 4 4 3 2 1 1 1 -1 -5 -7 -6 -3 -3 -4 -3 -1 -2 -1 -0 0 1 1 1 -0 -1 -2 -2 -2 -2 -2 -1 -1 -0 1 1 1 1 1 0 -0 -1 -1 -2 -1 -0 -0 -1 -0 1 1 -0 -2 -3 -3 -2 2 7
-0 -1 -1 -1 -1 -0 1 1 1 -0 -1 -1 -1 -0 1 1 1 1 1 0 0 0 2 2 1 -0 -1 0 1 2 3 3 3 2 1 2 2 2 3 3 2 0 -1 2 4 6 6 5 4 3 3 2 2 1 -0 -1 -2 -3 -6 -4 -3 -2 -2 -1 -0 0 2 3 2 2 0 -1 -1 -2 -2 -2 -2 -1 -1 0 1 1 1 1 1 1 0 -0 -1 -1 -1 -1 -1 -1 2 3 1 -1 -3 -3 -3 -2 -1
-0 -1 -1 -1 -1 -0 1 2 2 2 1 0 -0 0 1 1 1 -0 -0 -0 -0 -0 0 0 -1 -2 -2 -3 -2 1 4 4 4 3 3 1 -3 -6 -4 -0 1 0 -1 1 3 4 6 6 5 4 3 2 2 2 3 2 -0 -4 -5 -1 -1 -2 -2 -1 -0 1 3 3 2 1 0 -0 -1 -1 -2 -2 -2 -2 -1 -1 -0 0 1 2 2 2 1 1 0 -1 -1 -2 -3 -3 -0 3 4 2 -2 -2 -2 -2 -3
0 -0 -0 -0 0 0 0 1 1 2 2 1 1 1 1 1 0 -1 -1 -1 -1 -1 -0 -1 -1 -1 -0 -2 -2 0 3 2 3 4 2 0 -2 -5 -9 -5 -3 -2 -3 -1 0 1 2 2 1 1 1 1 1 2 3 3 -1 -5 -5 -1 -1 -2 -2 -1 0 1 2 1 0 0 0 -0 -0 -1 -1 -2 -2 -2 -2 -1 -1 -1 0 1 2 2 2 1 0 -0 -1 -2 -3 -4 -3 1 4 5 4 0 -1 -2 -2
1 1 1 1 1 1 1 1 1 1 1 0 0 0 -0 -0 -0 -0 -1 -1 -1 -1 -1 -2 -2 -1 1 -1 -0 2 4 1 1 1 -1 -4 -3 -2 -4 -3 -3 -5 -8 -5 -3 -2 -1 -1 -2 -2 -2 -2 -1 0 2 2 -1 -6 -7 -4 -3 -2 -1 -0 1 1 1 -1 -2 -2 -1 -0 0 0 -0 -1 -1 -2 -2 -2 -1 -0 1 2 2 2 2 1 -0 -1 -1 -1 -1 -2 -4 -3 1 5 7 4 1 -1 -1
2 1 1 1 1 1 2 2 2 1 0 -1 -1 -1 -0 -0 -0 0 0 0 0 -0 -1 -1 -1 -1 -1 -2 -2 -0 3 4 4 3 0 -3 -1 2 4 4 2 -2 -8 -8 -9 -9 -4 -6 -8 -9 -8 -6 -5 -2 -1 2 -1 -6 -10 -6 -3 -1 1 2 2 1 -1 -3 -3 -2 -1 0 0 1 0 -0 -1 -1 -2 -2 -1 -1 0 1 2 3 3 2 0 -0 0 0 0 -0 -1 -3 -2 1 5 5 3 1 -1
0 0 -0 -1 -0 0 0 0 1 1 1 -0 -1 -1 -1 -1 -0 -0 0 1 1 1 0 -1 1 3 3 2 -1 -3 -3 4 6 6 4 2 3 5 8 10 5 -2 -7 -3 -7 -13 -11 -10 -15 -21 -21 -15 -11 -7 -2 1 -1 -4 -4 -3 -2 -1 3 3 2 -0 -2 -5 -5 -2 0 0 0 1 1 0 -0 -1 -1 -2 -2 -1 -0 0 2 3 4 3 3 2 2 2 2 1 1 0 -1 -1 1 3 3 2 1
1 -0 -1 -2 -2 -3 -3 -2 -2 -1 -0 -0 -0 -1 -1 -1 -1 -1 0 -0 1 2 3 3 1 -0 -1 1 0 -1 -3 0 3 4 3 3 4 6 9 6 1 -4 -3 0 1 -3 -14 -11 -9 -11 -21 -15 -13 -11 -5 0 -1 -2 1 0 -0 0 3 3 2 -1 -4 -6 -5 -2 0 -1 -0 1 2 0 -0 -0 -1 -2 -3 -3 -2 -1 -1 -1 0 2 4 5 5 4 3 2 1 1 1 1 1 1 1 2 4
1 0 -1 -1 -2 -2 -3 -3 -3 -3 -2 -2 -2 -1 -0 -1 -2 -2 -1 -0 0 1 2 3 4 3 0 -2 -2 -1 -0 -0 0 1 1 3 4 5 6 4 4 6 8 6 2 -5 -12 -6 -3 -3 -6 -2 -3 -6 -9 -3 -1 -1 1 0 -0 -0 0 1 0 -2 -6 -6 -4 -1 -1 -2 -1 0 0 -0 -1 -1 -2 -3 -3 -4 -3 -3 -3 -3 -4 -1 1 4 5 4 4 3 1 1 1 1 1 1 1 1 3
-1 -1 -2 -2 -2 -2 -2 -2 -2 -2 -2 -3 -2 -2 -2 -1 -1 -2 -3 2 5 5 -1 -2 -0 3 4 1 0 -0 -0 -0 0 1 3 5 6 5 5 6 6 6 5 6 -0 -7 -7 3 6 2 -7 -1 1 -1 -8 -2 -0 -1 -3 -2 -2 -2 -2 -1 -1 -2 -5 -4 -3 -2 -3 -2 -2 -2 -3 -1 -1 -2 -3 -2 -3 -3 -3 -3 -3 -4 -5 -4 -2 -1 1 3 3 3 1 0 -0 -1 -0 1 1 2 3
-2 -2 -2 -2 -2 -2 -1 -1 -1 -1 -1 -1 -2 -2 -2 -2 -1 -1 -2 -2 -0 2 4 0 -2 -1 1 1 0 -0 -1 -1 -1 -0 1 4 6 7 7 5 3 2 1 -1 -3 -3 -1 5 8 5 -6 -3 -3 -5 -8 -2 0 0 -1 -2 -3 -2 -2 -1 -1 -1 -2 -1 -2 -3 -4 -3 -3 -4 -4 -2 -3 -3 -3 -1 -2 -2 -2 -2 -3 -3 -4 -5 -4 -3 -2 0 1 1 1 1 0 -1 -1 -0 1 2 3
-2 -2 -2 -2 -2 -1 -1 -1 -1 -1 -0 -1 -1 -1 -1 -1 -1 -1 -1 -2 -3 -1 5 9 7 3 1 2 2 1 -2 -3 -2 -1 -1 0 2 4 4 3 3 4 3 2 1 1 0 2 3 3 -0 1 -2 -5 -3 -1 -2 -2 -1 -3 -2 -1 0 0 0 -0 0 -1 -2 -3 -3 -3 -3 -4 -3 -3 -4 -5 -3 -1 -1 -1 -1 -2 -2 -2 -3 -4 -4 -5 -5 -3 -2 -1 2 3 3 2 1 0 1 2 3
-2 -2 -2 -2 -2 -2 -1 -1 -1 -0 -0 0 0 1 1 -0 -0 0 1 0 -0 0 1 8 11 11 8 4 2 1 -1 -2 -2 -0 0 -2 -3 -2 1 1 2 2 4 4 5 6 6 5 2 0 2 0 -2 -3 -1 -2 -3 -3 -2 -2 -1 1 1 0 -0 -0 0 -1 -1 -1 -1 -3 -3 -2 -1 -3 -4 -4 -3 -2 -1 -0 -0 -1 -2 -2 -3 -3 -4 -4 -5 -5 -4 -2 1 3 5 5 4 3 2 2 2
-2 -2 -1 -1 -1 -1 -1 -0 0 0 0 1 1 1 1 -1 -1 -0 0 -1 0 1 -0 -3 -1 3 5 1 -1 -2 -2 -2 -1 1 2 -1 -4 -6 -2 0 -1 -2 -2 -1 0 4 7 6 4 4 6 2 -1 -2 -3 -5 -4 -3 -2 -1 0 2 2 -1 -1 -1 -0 -2 0 2 1 -1 -1 -0 -1 -3 -3 -3 -2 -2 -1 -1 -0 -0 -1 -2 -3 -2 -2 -3 -4 -4 -4 -3 -1 1 4 6 7 6 5 4 3
-1 -0 0 1 1 1 0 0 1 1 1 1 1 1 0 -0 -1 -2 -1 2 2 0 -2 -2 -3 -4 -2 -2 -2 -2 -2 -3 -2 -0 1 1 -1 -3 -2 1 2 0 0 -1 -1 -1 1 0 2 4 7 6 4 2 -2 -5 -5 -4 -4 -3 -1 1 1 -2 -2 -1 -1 -1 1 2 2 1 1 0 -1 -2 -2 -2 -2 -2 -3 -2 -0 -0 -0 -0 -1 -1 -1 -2 -3 -5 -5 -5 -2 -0 2 4 6 7 7 6 5
Height
1525 1526 1526 1526 1526 1526 1527 1527 1527 1528 1528 1529 1529 1529 1530 1530 1530 1531 1531 1531 1531 1531 1532 1532 1532 1532 1532 1532 1532 1532 1533 1533 1533 1533 1533 1533 1533 1533 1534 1534 1534 1534 1535 1535 1535 1535 1536 1536 1536 1536 1537 1537 1537 1537 1537 1537 1537 1538 1538 1538 1538 1538 1539 1539 1539 1539 1539 1538 1538 1538 1537 1537 1537 1537 1537 1537 1537 1537 1537 1537 1537 1538 1538 1538 1539 1539 1539 1539 1539 1539 1539 1539 1539 1539 1540 1539 1539 1539 1539 1539 1539 1539 1539
1525 1525 1525 1526 1526 1526 1527 1527 1527 1528 1528 1528 1529 1529 1529 1530 1530 1530 1531 1531 1531 1531 1532 1532 1532 1532 1532 1532 1532 1533 1533 1533 1534 1534 1534 1534 1534 1534 1534 1534 1534 1534 1535 1535 1535 1536 1536 1536 1536 1537 1537 1537 1537 1537 1537 1537 1538 1538 1538 1538 1538 1538 1538 1539 1539 1539 1539 1538 1538 1537 1537 1537 1537 1537 1537 1537 1537 1537 1537 1537 1538 1538 1538 1539 1539 1539 1539 1539 1539 1539 1540 1540 1540 1540 1540 1540 1540 1539 1539 1539 1539 1539 1539
1525 1525 1525 1526 1526 1527 1527 1527 1527 1528 1528 1528 1528 1529 1529 1530 1530 1530 1531 1531 1531 1531 1532 1532 1532 1532 1532 1532 1533 1533 1533 1534 1534 1534 1534 1534 1534 1534 1534 1534 1534 1535 1535 1535 1535 1536 1536 1536 1536 1537 1537 1537 1537 1537 1537 1538 1538 1538 1538 1538 1538 1538 1538 1538 1538 1538 1538 1538 1538 1537 1537 1537 1537 1537 1537 1537 1538 1538 1538 1538 1538 1538 1539 1539 1539 1540 1540 1540 1540 1540 1540 1540 1540 1540 1540 1540 1540 1540 1540 1539 1540 1540 1539
1525 1525 1525 1526 1526 1527 1527 1527 1528 1528 1528 1528 1529 1529 1529 1530 1530 1530 1530 1531 1531 1531 1532 1532 1532 1532 1533 1533 1533 1533 1533 1534 1534 1534 1534 1534 1534 1534 1534 1534 1534 1535 1535 1535 1535 1536 1536 1536 1537 1537 1537 1537 1537 1537 1538 1538 1538 1538 1538 1538 1538 1538 1538 1538 1538 1538 1538 1538 1537 1537 1537 1537 1537 1537 1537 1538 1538 1538 1538 1538 1538 1539 1539 1539 1539 1540 1540 1540 1540 1540 1540 1540 1540 1540 1540 1540 1541 1541 1541 1540 1540 1540 1540
1525 1525 1525 1526 1526 1526 1527 1527 1528 1528 1529 1528 1529 1529 1529 1529 1530 1530 1530 1531 1531 1531 1532 1532 1532 1533 1533 1533 1533 1533 1534 1534 1534 1534 1534 1534 1534 1534 1534 1534 1535 1535 1535 1535 1536 1536 1536 1536 1537 1537 1537 1537 1537 1537 1538 1538 1538 1538 1538 1538 1538 1538 1538 1538 1538 1538 1538 1538 1538 1538 1538 1538 1538 1538 1538 1538 1538 1538 1539 1539 1539 1539 1539 1540 1540 1540 1540 1540 1540 1540 1540 1540 1540 1540 1541 1541 1541 1541 1541 1541 1541 1541 1540
1525 1525 1525 1526 1526 1526 1527 1527 1527 1528 1529 1528 1528 1529 1529 1529 1530 1530 1530 1530 1531 1531 1531 1532 1532 1533 1533 1533 1533 1533 1534 1534 1534 1535 1535 1535 1535 1535 1535 1535 1535 1535 1535 1535 1536 1536 1536 1536 1537 1537 1537 1537 1537 1537 1538 1538 1538 1538 1538 1538 1538 1538 1538 1539 1539 1539 1538 1538 1538 1538 1538 1538 1539 1539 1538 1538 1538 1539 1539 1539 1539 1539 1539 1540 1540 1540 1540 1540 1540 1541 1541 1541 1541 1541 1541 1541 1541 1541 1541 1541 1541 1541 1541
1525 1525 1526 1526 1526 1526 1526 1527 1527 1527 1528 1528 1528 1528 1529 1529 1530 1530 1530 1530 1531 1531 1531 1532 1532 1533 1533 1533 1534 1534 1534 1534 1534 1535 1535 1535 1535 1535 1535 1535 1535 1535 1535 1535 1536 1536 1536 1536 1537 1537 1537 1537 1537 1537 1537 1538 1538 1538 1538 1538 1538 1539 1539 1539 1539 1539 1539 1539 1539 1539 1539 1539 1539 1539 1539 1538 1539 1539 1539 1539 1539 1539 1540 1540 1540 1540 1540 1540 1540 1541 1541 1541 1541 1541 1541 1541 1541 1541 1541 1541 1541 1541 1541
1525 1525 1525 1526 1526 1526 1526 1527 1527 1527 1527 1527 1528 1528 1529 1529 1530 1530 1530 1530 1531 1531 1531 1531 1532 1532 1533 1533 1534 1534 1534 1534 1534 1535 1535 1535 1535 1535 1535 1535 1535 1535 1535 1535 1535 1536 1536 1536 1537 1537 1537 1537 1537 1537 1537 1537 1537 1537 1538 1538 1538 1539 1539 1539 1539 1539 1539 1539 1539 1539 1539 1540 1540 1539 1539 1539 1539 1539 1539 1540 1540 1539 1539 1540 1540 1540 1540 1540 1540 1540 1541 1541 1541 1541 1541 1541 1541 1541 1541 1541 1541 1541 1541
1525 1525 1525 1525 1526 1526 1526 1526 1527 1527 1527 1527 1528 1528 1529 1529 1529 1529 1530 1530 1530 1531 1531 1531 1532 1532 1533 1533 1534 1534 1534 1534 1534 1535 1535 1535 1535 1535 1535 1535 1535 1535 1535 1535 1535 1536 1536 1536 1536 1537 1537 1537 1537 1537 1537 1537 1537 1537 1538 1538 1538 1539 1539 1539 1539 1539 1539 1539 1539 1540 1539 1540 1540 1539 1539 1539 1539 1539 1539 1540 1540 1540 1539 1540 1540 1540 1540 1540 1540 1540 1540 1541 1541 1541 1541 1541 1541 1541 1541 1541 1542 1542 1542
1524 1525 1525 1525 1525 1526 1526 1526 1526 1527 1527 1527 1527 1528 1529 1529 1529 1529 1530 1530 1530 1531 1531 1531 1532 1532 1532 1533 1533 1534 1534 1534 1535 1535 1535 1535 1535 1535 1535 1535 1535 1535 1535 1535 1535 1535 1536 1536 1536 1537 1537 1537 1537 1537 1537 1537 1537 1537 1538 1538 1538 1539 1539 1539 1539 1539 1539 1539 1539 1540 1540 1540 1540 1540 1539 1539 1539 1540 1539 1540 1540 1540 1539 1540 1540 1540 1540 1540 1540 1541 1541 1541 1541 1541 1541 1541 1541 1541 1542 1542 1542 1542 1542
1524 1524 1525 1525 1525 1525 1526 1526 1526 1526 1527 1527 1527 1528 1528 1529 1529 1529 1530 1530 1530 1530 1531 1531 1532 1532 1532 1533 1533 1534 1534 1534 1535 1535 1535 1535 1535 1535 1536 1536 1536 1535 1535 1535 1535 1535 1536 1536 1536 1536 1537 1537 1537 1537 1537 1537 1537 1537 1538 1538 1538 1539 1539 1539 1539 1539 1539 1539 1540 1540 1540 1540 1540 1540 1540 1539 1540 1540 1540 1540 1540 1540 1540 1540 1540 1540 1540 1541 1541 1541 1541 1541 1541 1541 1541 1541 1541 1542 1542 1542 1542 1542 1542
1523 1524 1524 1525 1525 1525 1525 1526 1526 1526 1527 1527 1527 1527 1528 1528 1529 1529 1529 1530 1530 1530 1530 1531 1531 1532 1532 1532 1533 1533 1534 1534 1535 1535 1535 1535 1535 1535 1536 1536 1536 1536 1535 1535 1535 1535 1536 1536 1536 1536 1537 1537 1537 1537 1537 1537 1537 1537 1537 1538 1538 1539 1539 1539 1539 1539 1539 1540 1540 1540 1540 1540 1540 1540 1540 1540 1540 1540 1540 1541 1540 1540 1540 1540 1540 1540 1540 1541 1541 1541 1541 1541 1541 1541 1541 1541 1542 1542 1542 1542 1542 1542 1542
1523 1523 1524 1524 1525 1525 1525 1525 1526 1526 1526 1527 1527 1527 1527 1528 1528 1529 1529 1529 1530 1530 1530 1531 1531 1531 1532 1532 1533 1533 1534 1534 1535 1535 1535 1535 1535 1535 1536 1536 1536 1536 1536 1536 1535 1535 1536 1536 1536 1536 1537 1537 1537 1537 1537 1537 1537 1537 1537 1538 1538 1538 1539 1539 1539 1539 1539 1540 1540 1540 1540 1540 1540 1540 1540 1540 1540 1540 1540 1541 1541 1540 1540 1540 1540 1540 1540 1541 1541 1541 1541 1541 1541 1541 1541 1542 1542 1542 1542 1542 1542 1542 1542
1522 1522 1523 1524 1524 1524 1525 1525 1525 1526 1526 1526 1527 1527 1527 1527 1528 1528 1528 1529 1529 1530 1530 1530 1531 1531 1531 1532 1532 1533 1533 1534 1534 1535 1535 1535 1535 1535 1536 1536 1536 1536 1536 1536 1535 1535 1536 1536 1536 1536 1536 1537 1537 1537 1537 1537 1537 1537 1537 1538 1538 1538 1539 1539 1539 1539 1539 1539 1540 1539 1539 1540 1540 1540 1540 1540 1540 1540 1540 1540 1540 1540 1540 1540 1540 1540 1540 1540 1541 1541 1541 1541 1541 1541 1541 1542 1542 1542 1542 1542 1542 1542 1542
1521 1522 1523 1523 1524 1524 1524 1525 1525 1525 1526 1526 1526 1527 1527 1527 1527 1528 1528 1528 1529 1529 1530 1530 1530 1530 1531 1531 1532 1532 1533 1533 1534 1534 1535 1535 1535 1535 1536 1536 1536 1536 1536 1536 1536 1535 1536 1536 1536 1536 1536 1536 1537 1537 1537 1537 1537 1537 1538 1538 1538 1538 1539 1539 1539 1539 1539 1540 1540 1539 1539 1539 1540 1540 1540 1540 1540 1540 1540 1540 1540 1540 1540 1540 1540 1540 1540 1540 1541 1541 1541 1541 1541 1541 1541 1542 1542 1542 1542 1542 1542 1542 1543
1521 1521 1522 1523 1523 1523 1524 1524 1524 1525 1525 1526 1526 1526 1526 1527 1527 1527 1528 1528 1528 1529 1529 1529 1530 1530 1530 1531 1531 1532 1532 1533 1533 1534 1535 1535 1535 1535 1535 1536 1536 1536 1536 1536 1536 1535 1536 1536 1536 1536 1536 1536 1536 1537 1537 1537 1537 1537 1538 1538 1538 1538 1539 1539 1539 1539 1539 1540 1539 1539 1539 1539 1539 1539 1539 1539 1539 1540 1540 1540 1540 1540 1540 1540 1540 1540 1540 1540 1540 1541 1541 1541 1541 1541 1541 1542 1542 1542 1542 1542 1542 1542 1543
1520 1521 1521 1522 1523 1523 1523 1523 1524 1524 1525 1525 1526 1526 1526 1526 1527 1527 1527 1527 1528 1528 1529 1529 1529 1530 1530 1530 1531 1531 1532 1532 1533 1533 1534 1535 1535 1535 1535 1535 1535 1536 1536 1536 1536 1535 1535 1536 1536 1536 1536 1536 1536 1536 1537 1537 1537 1537 1538 1538 1538 1538 1539 1539 1539 1539 1539 1539 1539 1539 1539 1539 1539 1539 1539 1539 1539 1539 1540 1540 1540 1540 1539 1539 1539 1540 1540 1540 1540 1541 1541 1541 1541 1541 1542 1542 1542 1542 1542 1542 1542 1542 1543
1520 1520 1520 1521 1521 1522 1523 1523 1524 1524 1524 1524 1525 1526 1526 1526 1526 1526 1527 1527 1527 1528 1528 1528 1529 1529 1530 1530 1530 1531 1531 1532 1532 1533 1533 1534 1534 1534 1535 1535 1535 1535 1535 1536 1536 1535 1535 1536 1536 1536 1536 1536 1536 1536 1537 1537 1537 1537 1538 1538 1538 1538 1539 1539 1539 1539 1539 1539 1539 1539 1539 1539 1539 1539 1539 1539 1539 1539 1539 1540 1540 1540 1539 1539 1539 1540 1540 1540 1540 1540 1541 1541 1541 1541 1542 1542 1542 1542 1542 1542 1542 1542 1543
1520 1520 1520 1520 1520 1521 1521 1522 1522 1523 1523 1524 1524 1525 1525 1525 1526 1526 1526 1526 1527 1527 1528 1528 1528 1529 1529 1530 1530 1530 1530 1531 1532 1532 1533 1533 1534 1534 1534 1534 1535 1535 1535 1535 1535 1535 1535 1535 1536 1536 1536 1536 1536 1537 1537 1537 1537 1537 1537 1538 1538 1538 1539 1539 1539 1539 1539 1539 1539 1539 1539 1539 1539 1539 1539 1539 1539 1539 1539 1540 1540 1539 1539 1539 1539 1540 1540 1540 1540 1540 1540 1541 1541 1541 1542 1542 1542 1542 1542 1542 1542 1542 1543
1519 1519 1520 1520 1520 1520 1520 1521 1521 1522 1522 1523 1524 1524 1525 1525 1525 1525 1525 1526 1526 1527 1527 1528 1528 1528 1529 1529 1529 1529 1530 1530 1531 1531 1532 1532 1533 1533 1533 1534 1534 1534 1535 1535 1535 1535 1535 1535 1535 1536 1536 1536 1536 1536 1537 1537 1537 1537 1537 1538 1538 1538 1538 1539 1539 1539 1539 1539 1538 1538 1539 1539 1539 1539 1539 1539 1539 1539 1539 1539 1539 1539 1539 1539 1539 1539 1540 1540 1540 1540 1540 1541 1541 1541 1542 1542 1542 1542 1542 1542 1542 1542 1543
1518 1518 1519 1519 1519 1520 1520 1520 1521 1521 1521 1522 1523 1523 1523 1524 1525 1525 1525 1525 1526 1526 1527 1527 1527 1527 1528 1528 1528 1529 1529 1530 1530 1530 1531 1532 1532 1532 1533 1533 1533 1534 1534 1534 1535 1535 1535 1535 1535 1535 1536 1536 1536 1536 1536 1537 1537 1537 1537 1537 1538 1538 1538 1539 1539 1539 1539 1539 1539 1539 1539 1539 1539 1539 1539 1539 1539 1539 1539 1539 1539 1539 1539 1539 1539 1539 1539 1540 1540 1540 1540 1541 1541 1541 1541 1542 1542 1542 1542 1542 1542 1542 1543
1517 1517 1518 1518 1518 1519 1519 1520 1520 1521 1521 1521 1522 1522 1522 1523 1523 1524 1524 1525 1525 1525 1526 1526 1526 1527 1527 1527 1528 1528 1528 1529 1529 1530 1530 1531 1531 1532 1532 1533 1533 1533 1534 1534 1534 1534 1535 1535 1535 1535 1535 1535 1536 1536 1536 1536 1537 1537 1537 1537 1537 1538 1538 1539 1539 1539 1539 1539 1539 1539 1539 1539 1539 1539 1538 1539 1539 1539 1539 1539 1539 1539 1539 1539 1539 1539 1539 1539 1540 1540 1540 1540 1541 1541 1541 1542 1542 1542 1542 1542 1542 1542 1542
1516 1517 1517 1517 1518 1518 1518 1519 1520 1520 1520 1521 1522 1522 1521 1522 1522 1523 1523 1524 1524 1525 1525 1525 1526 1526 1526 1527 1527 1527 1528 1528 1529 1529 1530 1530 1531 1531 1532 1532 1533 1533 1533 1534 1534 1534 1534 1534 1535 1535 1535 1535 1535 1536 1536 1536 1536 1536 1537 1537 1537 1537 1538 1538 1539 1539 1539 1539 1539 1539 1539 1539 1539 1539 1539 1539 1539 1539 1539 1539 1539 1539 1538 1538 1538 1538 1539 1539 1539 1540 1540 1540 1540 1541 1541 1541 1542 1542 1542 1542 1542 1542 1542
1515 1516 1516 1516 1517 1517 1518 1518 1519 1520 1520 1520 1521 1521 1521 1522 1522 1523 1523 1523 1523 1524 1525 1525 1525 1525 1526 1526 1526 1527 1527 1528 1528 1529 1529 1530 1530 1530 1531 1531 1532 1532 1533 1533 1533 1534 1534 1534 1534 1534 1535 1535 1535 1535 1535 1536 1536 1536 1536 1537 1537 1537 1537 1538 1539 1539 1539 1539 1539 1539 1539 1539 1539 1539 1539 1539 1539 1538 1538 1539 1539 1539 1538 1538 1538 1538 1538 1539 1539 1539 1540 1540 1540 1540 1541 1541 1541 1541 1542 1542 1542 1542 1542
1515 1515 1515 1515 1516 1516 1517 1517 1518 1519 1519 1519 1519 1520 1521 1522 1523 1523 1523 1523 1523 1523 1524 1524 1524 1525 1525 1525 1526 1526 1527 1527 1528 1528 1529 1529 1530 1530 1530 1531 1531 1532 1532 1533 1533 1533 1533 1533 1534 1534 1534 1534 1534 1535 1535 1535 1535 1535 1536 1536 1536 1537 1537 1538 1538 1539 1539 1539 1539 1539 1539 1539 1539 1539 1539 1539 1539 1539 1538 1538 1538 1538 1538 1538 1538 1538 1538 1538 1539 1539 1539 1540 1540 1540 1540 1541 1541 1541 1541 1542 1542 1542 1542
1514 1514 1514 1515 1515 1515 1516 1516 1517 1518 1518 1519 1519 1519 1520 1521 1522 1522 1523 1523 1523 1523 1523 1524 1524 1524 1525 1525 1525 1526 1526 1527 1527 1528 1528 1529 1529 1529 1530 1530 1530 1531 1531 1532 1532 1533 1533 1533 1533 1533 1534 1534 1534 1534 1534 1535 1535 1535 1535 1536 1536 1536 1537 1537 1537 1538 1538 1538 1539 1539 1539 1539 1539 1539 1539 1539 1539 1539 1539 1538 1538 1538 1538 1538 1538 1538 1538 1538 1538 1538 1539 1539 1540 1540 1540 1540 1541 1541 1541 1541 1541 1542 1542
1513 1513 1513 1514 1514 1515 1515 1516 1516 1517 1517 1518 1518 1518 1519 1519 1520 1521 1522 1522 1523 1523 1523 1523 1523 1524 1524 1525 1525 1525 1526 1526 1527 1527 1528 1528 1528 1529 1529 1529 1530 1530 1530 1531 1532 1532 1532 1532 1533 1533 1533 1533 1533 1533 1534 1534 1534 1534 1535 1535 1535 1536 1536 1536 1537 1537 1537 1538 1538 1538 1539 1539 1539 1539 1539 1539 1539 1539 1538 1538 1538 1538 1538 1538 1538 1538 1538 1538 1538 1538 1538 1539 1539 1539 1540 1540 1540 1540 1541 1541 1541 1541 1541
1512 1512 1513 1513 1513 1514 1514 1515 1515 1516 1516 1517 1517 1518 1518 1519 1520 1520 1521 1521 1522 1523 1523 1523 1523 1523 1524 1524 1525 1525 1525 1526 1526 1527 1527 1528 1528 1528 1528 1529 1529 1529 1530 1530 1531 1531 1532 1532 1532 1532 1532 1532 1533 1533 1533 1533 1534 1534 1534 1534 1535 1535 1535 1536 1536 1536 1537 1537 1537 1538 1538 1538 1538 1538 1538 1538 1538 1538 1538 1538 1538 1537 1537 1537 1537 1537 1537 1537 1537 1537 1538 1538 1538 1539 1539 1540 1540 1540 1540 1540 1540 1541 1541
1512 1512 1512 1512 1513 1513 1513 1514 1515 1515 1516 1516 1517 1517 1517 1518 1519 1519 1520 1520 1521 1521 1522 1522 1522 1522 1523 1523 1524 1525 1525 1525 1526 1526 1526 1527 1527 1527 1528 1528 1528 1529 1529 1529 1530 1530 1531 1531 1531 1532 1532 1532 1532 1532 1532 1533 1533 1533 1533 1534 1534 1534 1535 1535 1535 1536 1536 1536 1537 1537 1537 1538 1538 1538 1538 1538 1538 1538 1538 1537 1537 1537 1537 1537 1537 1537 1537 1537 1537 1537 1537 1537 1538 1538 1539 1539 1539 1539 1540 1540 1540 1540 1540
1511 1511 1511 1511 1512 1512 1513 1513 1514 1514 1515 1515 1516 1516 1517 1517 1518 1518 1519 1519 1520 1520 1520 1521 1521 1521 1522 1522 1523 1524 1524 1525 1525 1525 1525 1526 1527 1527 1527 1527 1528 1528 1528 1529 1529 1530 1530 1530 1531 1531 1531 1531 1531 1532 1532 1532 1532 1532 1533 1533 1533 1534 1534 1534 1535 1535 1535 1536 1536 1536 1537 1537 1537 1537 1538 1538 1537 1537 1537 1537 1537 1536 1537 1537 1536 1536 1536 1536 1537 1537 1537 1537 1537 1537 1538 1538 1538 1539 1539 1539 1540 1540 1540
1510 1510 1510 1511 1511 1512 1512 1512 1513 1513 1514 1515 1515 1515 1516 1517 1517 1517 1518 1518 1519 1519 1519 1520 1520 1520 1521 1521 1522 1523 1523 1524 1524 1524 1524 1525 1526 1526 1526 1527 1527 1527 1528 1528 1528 1529 1529 1530 1530 1530 1530 1530 1530 1531 1531 1531 1531 1532 1532 1532 1532 1533 1533 1533 1534 1534 1534 1535 1535 1535 1536 1536 1537 1537 1537 1537 1537 1537 1536 1536 1536 1536 1536 1536 1536 1536 1536 1536 1536 1536 1536 1536 1536 1537 1537 1537 1538 1538 1538 1539 1539 1539 1539
1508 1509 1510 1510 1511 1511 1511 1512 1512 1512 1513 1514 1514 1515 1515 1516 1516 1517 1517 1517 1518 1518 1518 1518 1519 1519 1520 1520 1521 1522 1522 1523 1523 1523 1523 1524 1525 1525 1525 1526 1526 1526 1527 1527 1528 1528 1528 1529 1529 1529 1529 1529 1529 1530 1530 1530 1530 1531 1531 1531 1532 1532 1532 1533 1533 1533 1533 1534 1534 1535 1535 1535 1535 1536 1536 1536 1536 1536 1536 1536 1536 1535 1535 1535 1535 1535 1535 1535 1535 1535 1535 1535 1535 1536 1536 1537 1537 1537 1538 1538 1538 1539 1539
1507 1507 1508 1510 1510 1510 1510 1511 1511 1512 1512 1513 1513 1514 1515 1515 1515 1516 1516 1517 1517 1517 1517 1517 1518 1518 1519 1519 1520 1520 1521 1521 1521 1522 1522 1523 1523 1524 1525 1525 1525 1526 1526 1526 1527 1527 1527 1528 1528 1528 1528 1528 1528 1529 1529 1529 1530 1530 1530 1530 1531 1531 1532 1532 1532 1532 1532 1533 1533 1534 1534 1534 1534 1535 1535 1535 1535 1535 1536 1535 1535 1535 1534 1534 1534 1534 1534 1534 1535 1535 1535 1535 1535 1535 1535 1536 1536 1536 1537 1537 1537 1538 1538
1506 1506 1506 1508 1509 1510 1510 1510 1510 1511 1511 1512 1512 1513 1513 1514 1514 1514 1515 1516 1516 1516 1516 1517 1517 1518 1518 1518 1519 1519 1519 1519 1520 1520 1521 1521 1522 1523 1523 1524 1524 1525 1525 1525 1526 1526 1527 1527 1527 1527 1527 1527 1527 1527 1528 1528 1528 1529 1529 1529 1530 1530 1530 1531 1531 1531 1531 1532 1532 1532 1533 1533 1533 1533 1534 1533 1534 1534 1535 1534 1534 1534 1534 1534 1534 1534 1534 1534 1534 1534 1534 1534 1534 1534 1534 1535 1535 1535 1536 1536 1537 1537 1537
1504 1504 1505 1506 1507 1508 1509 1509 1509 1509 1510 1510 1511 1511 1512 1512 1512 1513 1514 1515 1515 1515 1515 1515 1516 1517 1517 1518 1518 1518 1517 1517 1518 1518 1519 1520 1520 1521 1522 1522 1523 1523 1524 1524 1525 1525 1526 1526 1526 1526 1526 1526 1526 1526 1527 1527 1527 1527 1528 1528 1529 1529 1530 1530 1530 1530 1530 1530 1531 1531 1532 1532 1532 1532 1532 1533 1533 1534 1535 1534 1533 1533 1533 1533 1533 1533 1533 1533 1533 1533 1533 1533 1534 1534 1534 1534 1534 1534 1535 1535 1536 1536 1537
1502 1504 1504 1505 1505 1506 1507 1508 1508 1508 1509 1509 1510 1510 1510 1511 1511 1512 1513 1514 1514 1514 1514 1515 1515 1516 1516 1517 1517 1517 1516 1516 1516 1516 1517 1517 1518 1519 1520 1520 1521 1522 1522 1523 1523 1524 1525 1525 1525 1525 1525 1525 1525 1525 1525 1526 1526 1526 1527 1527 1528 1528 1528 1529 1529 1529 1529 1529 1530 1530 1530 1531 1531 1531 1532 1532 1532 1532 1534 1534 1533 1533 1533 1533 1533 1533 1533 1533 1532 1532 1532 1533 1533 1533 1533 1533 1533 1534 1534 1534 1535 1535 1536
1501 1502 1503 1503 1504 1505 1505 1506 1507 1507 1507 1508 1508 1509 1509 1510 1510 1510 1510 1512 1512 1513 1514 1514 1514 1514 1515 1515 1515 1515 1515 1515 1515 1515 1515 1516 1516 1517 1518 1519 1519 1520 1520 1521 1522 1522 1523 1523 1523 1524 1524 1524 1524 1524 1524 1525 1525 1525 1525 1526 1526 1527 1527 1527 1528 1528 1528 1528 1529 1529 1529 1530 1530 1530 1530 1531 1531 1531 1532 1532 1532 1532 1532 1532 1532 1532 1532 1532 1532 1532 1532 1532 1532 1532 1532 1532 1533 1533 1533 1533 1534 1534 1535
1499 1500 1500 1502 1502 1503 1504 1505 1506 1506 1506 1506 1507 1507 1508 1508 1509 1509 1509 1508 1509 1510 1511 1512 1513 1513 1514 1514 1514 1515 1515 1514 1514 1514 1514 1515 1515 1515 1516 1517 1518 1518 1519 1519 1520 1521 1521 1522 1522 1522 1522 1523 1523 1523 1523 1523 1523 1524 1524 1525 1525 1525 1526 1526 1526 1527 1527 1527 1527 1528 1528 1528 1529 1529 1529 1530 1530 1530 1531 1531 1531 1531 1531 1531 1531 1531 1531 1531 1531 1531 1531 1531 1531 1531 1532 1532 1532 1532 1532 1532 1533 1533 1534
1498 1498 1499 1500 1501 1501 1502 1503 1504 1504 1505 1505 1505 1506 1506 1507 1507 1507 1507 1507 1507 1507 1508 1509 1511 1512 1513 1513 1513 1514 1514 1514 1513 1513 1513 1514 1514 1514 1515 1515 1516 1517 1518 1518 1518 1518 1519 1520 1520 1521 1521 1521 1521 1522 1522 1522 1522 1522 1523 1523 1524 1524 1525 1525 1525 1525 1526 1526 1526 1527 1527 1527 1528 1528 1528 1528 1529 1529 1529 1530 1530 1530 1530 1530 1530 1530 1530 1530 1530 1530 1530 1530 1530 1531 1531 1531 1531 1531 1531 1532 1532 1532 1533
1497 1497 1498 1498 1499 1500 1501 1501 1502 1503 1503 1504 1504 1505 1505 1505 1506 1506 1506 1506 1506 1507 1507 1507 1508 1509 1510 1512 1512 1512 1513 1513 1513 1513 1512 1512 1512 1512 1513 1514 1515 1516 1516 1517 1517 1517 1517 1518 1519 1519 1520 1520 1520 1520 1521 1521 1521 1521 1521 1522 1522 1523 1523 1524 1524 1524 1524 1525 1525 1525 1526 1526 1526 1527 1527 1527 1527 1528 1528 1528 1529 1529 1529 1529 1529 1529 1529 1529 1530 1530 1530 1530 1530 1530 1530 1530 1530 1530 1530 1531 1531 1531 1532
1496 1497 1497 1497 1498 1499 1499 1500 1500 1501 1501 1502 1502 1503 1503 1504 1504 1505 1505 1505 1505 1506 1506 1506 1507 1507 1507 1509 1511 1512 1512 1513 1513 1513 1512 1512 1511 1511 1512 1512 1513 1514 1515 1515 1515 1515 1515 1516 1517 1517 1518 1518 1519 1519 1519 1519 1519 1520 1520 1520 1521 1521 1522 1522 1522 1523 1523 1523 1524 1524 1525 1525 1525 1525 1526 1526 1526 1526 1527 1527 1527 1528 1528 1528 1528 1528 1529 1529 1529 1529 1529 1529 1529 1529 1529 1529 1529 1530 1530 1530 1530 1530 1531
1495 1495 1496 1496 1497 1497 1498 1498 1499 1499 1500 1500 1501 1501 1501 1502 1502 1503 1503 1504 1504 1505 1505 1506 1506 1506 1506 1506 1508 1510 1511 1512 1512 1512 1512 1511 1511 1511 1511 1511 1511 1512 1512 1513 1513 1513 1513 1514 1515 1516 1517 1517 1518 1518 1518 1518 1518 1518 1519 1519 1519 1520 1520 1521 1521 1521 1522 1522 1522 1523 1523 1524 1524 1524 1525 1525 1525 1525 1525 1525 1526 1527 1527 1527 1527 1527 1528 1528 1528 1528 1528 1528 1528 1528 1529 1529 1529 1529 1529 1529 1529 1529 1530
1494 1494 1495 1495 1495 1496 1496 1497 1497 1498 1498 1499 1499 1500 1500 1500 1500 1501 1502 1502 1502 1503 1504 1505 1506 1506 1506 1506 1507 1508 1509 1510 1511 1511 1511 1510 1510 1510 1510 1510 1510 1510 1511 1511 1511 1512 1512 1512 1513 1514 1515 1516 1516 1516 1516 1517 1517 1517 1517 1517 1518 1518 1519 1519 1519 1520 1520 1520 1521 1521 1522 1522 1523 1523 1523 1524 1524 1524 1524 1524 1524 1525 1525 1526 1526 1526 1527 1527 1527 1527 1527 1527 1527 1527 1528 1528 1528 1528 1528 1528 1528 1528 1529
1493 1493 1494 1494 1494 1495 1495 1495 1496 1496 1497 1497 1498 1498 1498 1499 1499 1500 1500 1500 1500 1502 1503 1504 1505 1505 1506 1506 1507 1507 1509 1509 1510 1510 1510 1509 1509 1508 1509 1509 1509 1509 1509 1509 1510 1510 1510 1511 1512 1513 1514 1514 1515 1515 1515 1516 1516 1516 1516 1516 1516 1517 1517 1517 1518 1518 1518 1519 1519 1520 1520 1521 1521 1522 1522 1522 1522 1523 1523 1523 1523 1523 1523 1524 1524 1524 1525 1525 1526 1526 1526 1526 1526 1526 1527 1527 1527 1527 1527 1527 1527 1527 1528
1492 1492 1493 1493 1493 1494 1494 1494 1495 1495 1496 1496 1496 1497 1497 1497 1498 1498 1498 1498 1499 1500 1502 1503 1504 1505 1505 1505 1506 1507 1508 1509 1509 1509 1508 1508 1507 1507 1507 1507 1507 1508 1508 1508 1508 1509 1509 1510 1510 1511 1512 1512 1513 1513 1513 1514 1515 1515 1515 1515 1515 1515 1515 1516 1516 1516 1517 1517 1517 1518 1518 1519 1520 1520 1521 1521 1521 1521 1521 1521 1521 1521 1522 1522 1522 1522 1523 1523 1524 1524 1524 1525 1525 1525 1525 1525 1526 1526 1526 1526 1526 1527 1528
1491 1491 1491 1492 1492 1492 1493 1493 1493 1494 1494 1495 1495 1495 1496 1496 1496 1496 1496 1496 1497 1498 1500 1501 1502 1503 1504 1505 1505 1506 1506 1507 1507 1507 1507 1506 1506 1506 1506 1506 1506 1506 1507 1507 1507 1507 1508 1508 1509 1509 1510 1510 1511 1511 1511 1512 1513 1514 1514 1513 1513 1513 1514 1514 1514 1515 1515 1515 1516 1516 1517 1517 1518 1519 1519 1520 1520 1520 1520 1520 1520 1520 1520 1520 1520 1520 1521 1521 1522 1522 1523 1523 1523 1523 1524 1524 1524 1525 1525 1525 1525 1527 1528
1490 1490 1490 1490 1491 1491 1491 1492 1492 1492 1493 1493 1493 1494 1494 1494 1495 1495 1495 1495 1496 1497 1498 1499 1500 1501 1502 1502 1503 1503 1504 1505 1505 1505 1505 1505 1505 1505 1505 1505 1505 1505 1505 1505 1506 1506 1506 1507 1507 1507 1508 1508 1509 1509 1509 1510 1511 1511 1511 1511 1511 1512 1512 1512 1513 1513 1513 1514 1514 1514 1515 1515 1516 1517 1517 1518 1518 1518 1518 1518 1518 1518 1518 1518 1518 1519 1519 1519 1520 1520 1521 1521 1522 1522 1523 1523 1523 1523 1523 1524 1524 1525 1526
1488 1488 1488 1489 1489 1490 1490 1490 1491 1491 1491 1492 1492 1492 1493 1493 1493 1494 1494 1495 1495 1496 1497 1497 1498 1499 1499 1500 1500 1501 1501 1502 1503 1504 1504 1504 1504 1503 1503 1503 1504 1504 1504 1504 1504 1505 1505 1505 1505 1506 1506 1507 1507 1508 1508 1508 1509 1509 1509 1509 1510 1510 1510 1510 1511 1511 1512 1512 1512 1512 1512 1513 1514 1515 1515 1515 1516 1516 1516 1517 1517 1517 1517 1517 1517 1517 1517 1517 1518 1518 1519 1519 1520 1520 1521 1522 1522 1522 1522 1522 1523 1523 1524
1487 1487 1487 1487 1488 1488 1489 1489 1489 1490 1490 1490 1491 1491 1491 1492 1492 1492 1493 1494 1494 1495 1495 1496 1497 1497 1498 1498 1498 1499 1499 1500 1501 1503 1503 1503 1502 1502 1502 1502 1503 1503 1503 1504 1503 1503 1503 1504 1504 1504 1505 1505 1506 1506 1507 1507 1507 1507 1508 1508 1508 1508 1508 1509 1509 1510 1510 1510 1510 1510 1511 1511 1512 1512 1513 1513 1514 1514 1515 1515 1515 1515 1515 1515 1515 1515 1515 1516 1516 1516 1517 1517 1518 1519 1519 1520 1520 1520 1521 1521 1521 1522 1522
1486 1486 1486 1486 1487 1487 1487 1488 1488 1488 1489 1489 1489 1490 1490 1490 1491 1491 1492 1492 1493 1494 1494 1495 1495 1496 1497 1497 1496 1497 1497 1498 1500 1501 1502 1502 1501 1500 1500 1501 1502 1502 1502 1502 1502 1502 1502 1502 1502 1502 1503 1503 1504 1505 1505 1506 1506 1506 1506 1507 1507 1507 1507 1507 1507 1508 1508 1508 1508 1509 1509 1509 1510 1510 1511 1511 1512 1512 1512 1513 1513 1513 1513 1514 1514 1514 1514 1514 1514 1514 1515 1515 1516 1517 1517 1518 1518 1519 1519 1520 1520 1520 1521
1485 1485 1485 1485 1485 1486 1486 1486 1487 1487 1487 1487 1488 1488 1489 1489 1490 1490 1491 1491 1492 1493 1493 1493 1493 1494 1495 1495 1494 1495 1496 1497 1499 1500 1501 1500 1499 1499 1499 1500 1500 1500 1500 1501 1501 1501 1501 1501 1500 1501 1501 1502 1502 1503 1504 1504 1504 1504 1504 1505 1505 1505 1505 1505 1505 1506 1506 1507 1507 1507 1507 1507 1508 1508 1509 1509 1509 1510 1510 1510 1511 1511 1512 1512 1512 1512 1512 1512 1512 1512 1512 1513 1514 1515 1515 1516 1517 1517 1518 1518 1518 1518 1519
1483 1483 1483 1483 1484 1484 1485 1485 1485 1486 1486 1486 1486 1487 1487 1488 1489 1489 1490 1490 1491 1491 1492 1492 1493 1493 1493 1492 1492 1492 1493 1495 1497 1498 1498 1498 1497 1497 1498 1498 1499 1499 1499 1499 1499 1499 1500 1500 1499 1500 1500 1501 1501 1502 1502 1502 1502 1502 1502 1503 1503 1503 1503 1503 1503 1504 1504 1504 1505 1505 1505 1505 1506 1506 1506 1507 1507 1507 1508 1508 1509 1509 1510 1510 1510 1510 1510 1510 1510 1510 1511 1511 1512 1512 1513 1514 1515 1516 1516 1517 1517 1517 1517
1481 1481 1481 1482 1482 1482 1483 1483 1484 1485 1485 1485 1485 1486 1486 1487 1487 1488 1489 1489 1490 1490 1490 1491 1491 1492 1492 1492 1491 1491 1491 1493 1495 1495 1496 1496 1496 1497 1497 1497 1497 1497 1497 1498 1498 1498 1498 1498 1498 1498 1499 1499 1499 1500 1500 1500 1500 1500 1500 1501 1501 1501 1501 1501 1501 1502 1502 1502 1502 1502 1503 1503 1503 1504 1504 1504 1505 1505 1505 1506 1506 1507 1508 1508 1508 1509 1509 1509 1508 1509 1509 1509 1510 1510 1511 1512 1513 1513 1514 1515 1515 1515 1515
1480 1480 1480 1480 1481 1481 1481 1482 1482 1483 1484 1484 1485 1485 1485 1486 1486 1487 1488 1488 1489 1489 1490 1490 1490 1490 1490 1490 1490 1490 1490 1491 1492 1493 1493 1494 1495 1496 1496 1495 1494 1494 1495 1497 1497 1496 1494 1494 1495 1495 1495 1496 1497 1497 1497 1498 1497 1497 1498 1498 1498 1499 1499 1499 1500 1500 1500 1499 1500 1500 1500 1500 1501 1501 1502 1502 1502 1503 1503 1504 1504 1505 1505 1506 1506 1507 1507 1507 1507 1507 1507 1508 1508 1508 1509 1510 1510 1511 1512 1512 1513 1513 1513
1480 1480 1480 1480 1480 1480 1481 1481 1481 1482 1482 1483 1483 1484 1484 1485 1485 1486 1487 1487 1488 1488 1488 1488 1488 1489 1488 1488 1488 1488 1489 1489 1490 1491 1492 1493 1494 1494 1494 1494 1494 1494 1494 1495 1495 1493 1492 1493 1493 1493 1492 1493 1494 1494 1494 1495 1495 1495 1495 1496 1496 1497 1497 1498 1498 1498 1497 1497 1497 1498 1498 1498 1498 1499 1499 1500 1500 1500 1501 1501 1502 1502 1503 1504 1504 1504 1505 1505 1505 1506 1506 1506 1506 1506 1507 1507 1508 1509 1510 1510 1511 1511 1512
1479 1479 1479 1480 1480 1480 1480 1481 1481 1481 1482 1482 1482 1482 1483 1484 1484 1485 1485 1486 1487 1487 1486 1486 1487 1487 1487 1487 1487 1487 1487 1488 1489 1490 1491 1491 1492 1492 1493 1493 1493 1493 1493 1492 1491 1491 1492 1493 1494 1492 1491 1491 1491 1491 1491 1492 1492 1493 1493 1494 1494 1495 1495 1496 1496 1496 1495 1495 1496 1496 1496 1496 1496 1497 1497 1497 1497 1498 1498 1499 1499 1500 1500 1501 1502 1502 1502 1502 1503 1503 1504 1504 1504 1504 1505 1505 1506 1506 1507 1508 1508 1509 1510
1479 1479 1479 1479 1480 1480 1480 1480 1481 1481 1481 1481 1481 1482 1482 1482 1483 1484 1484 1484 1485 1486 1486 1486 1485 1485 1485 1486 1486 1485 1486 1486 1487 1488 1489 1490 1490 1490 1491 1491 1492 1492 1492 1491 1491 1491 1491 1492 1493 1491 1490 1489 1490 1489 1489 1490 1490 1491 1491 1492 1492 1493 1493 1494 1494 1494 1494 1494 1494 1494 1494 1494 1495 1495 1495 1495 1495 1495 1496 1496 1497 1497 1498 1498 1499 1499 1499 1500 1500 1501 1501 1502 1502 1502 1502 1503 1504 1504 1505 1505 1506 1507 1507
1478 1478 1479 1479 1479 1480 1480 1480 1480 1480 1480 1480 1481 1481 1481 1482 1482 1482 1483 1483 1484 1484 1485 1486 1485 1485 1485 1485 1485 1485 1484 1484 1485 1486 1487 1487 1488 1488 1489 1489 1490 1490 1490 1490 1490 1490 1490 1491 1491 1490 1489 1489 1488 1488 1488 1489 1489 1489 1489 1490 1490 1491 1492 1492 1492 1492 1492 1492 1492 1492 1492 1492 1492 1492 1492 1493 1493 1493 1493 1493 1494 1495 1495 1496 1496 1496 1497 1497 1497 1498 1498 1499 1499 1500 1500 1501 1501 1502 1502 1503 1504 1504 1505
1478 1478 1478 1479 1479 1479 1479 1479 1480 1480 1480 1480 1480 1480 1481 1481 1481 1481 1482 1482 1482 1483 1483 1484 1485 1485 1484 1484 1484 1484 1484 1483 1484 1485 1485 1486 1486 1486 1487 1487 1488 1488 1488 1489 1489 1490 1490 1490 1489 1489 1489 1488 1487 1486 1487 1487 1487 1487 1487 1487 1488 1489 1490 1490 1490 1490 1490 1490 1490 1490 1490 1490 1490 1490 1490 1490 1490 1490 1490 1490 1491 1492 1492 1493 1493 1493 1494 1494 1495 1495 1496 1496 1497 1497 1498 1499 1499 1500 1500 1501 1501 1502 1502
1477 1477 1478 1478 1478 1478 1478 1479 1479 1479 1479 1479 1479 1479 1480 1480 1480 1480 1481 1481 1481 1481 1482 1482 1482 1482 1483 1482 1482 1482 1482 1482 1483 1484 1484 1485 1484 1484 1485 1486 1486 1486 1486 1487 1487 1488 1488 1488 1488 1488 1488 1487 1487 1486 1485 1485 1485 1486 1486 1486 1487 1487 1488 1487 1487 1487 1487 1488 1488 1488 1488 1488 1488 1488 1488 1488 1487 1487 1487 1487 1488 1489 1490 1490 1490 1490 1491 1491 1492 1493 1493 1494 1494 1495 1496 1496 1497 1497 1498 1499 1499 1499 1500
1476 1476 1477 1477 1477 1477 1477 1478 1478 1478 1478 1478 1478 1478 1478 1478 1479 1479 1479 1480 1480 1480 1480 1480 1481 1481 1481 1481 1481 1481 1481 1481 1481 1482 1483 1483 1483 1483 1484 1485 1485 1485 1485 1485 1485 1486 1486 1486 1486 1487 1487 1487 1486 1485 1484 1483 1483 1484 1484 1485 1485 1486 1486 1485 1485 1485 1485 1486 1486 1486 1486 1486 1486 1486 1486 1486 1485 1485 1484 1484 1485 1486 1487 1487 1487 1488 1488 1489 1489 1490 1490 1491 1491 1492 1493 1494 1495 1495 1496 1496 1497 1497 1498